User: anonymous   Login
Location: Unspecified
(0.0000°N, 0.0000°E)
Time: 12:06:41
(UTC+00:00)
Language:

Altair - Orbit

View from above orbital plane
View from above orbital plane
View from above satellite
View from above satellite

Ground track
Ground track

The orbit data is extracted from the following two-line orbital elements,

1    50U 60009B   16269.78961412 -.00000039 +00000-0 +43086-3 0  9999
2    50 047.2338 024.2716 0113999 230.4222 128.6454 12.20097407504093
Epoch (UTC): 25 September 2016 18:57:02
Eccentricity: 0.0113999
inclination: 47.2338°
perigee height: 1501 km
apogee height: 1683 km
right ascension of ascending node: 24.2716°
argument of perigee: 230.4222°
revolutions per day: 12.20097407
mean anomaly at epoch: 128.6454°
orbit number at epoch: 50409

The dashed part of the orbit path shows where the satellite is in the earth's shadow,  

DLR